H1 CPF 2 NER 2024 1 18 9 018 01 glonass133 H2 1403201 9133 40001 2024 1 18 0 0 0 2024 1 21 23 45 0 900 1 1 0 0 0 1 H9 10 0 60327 0.00000 0 18682696.105 16730891.428 4603117.634 10 0 60327 900.00000 0 19087953.818 16847067.119 1389742.746 10 0 60327 1800.00000 0 19199777.980 16673597.570 -1850664.947 10 0 60327 2700.00000 0 18981230.566 16254084.858 -5055068.806 10 0 60327 3600.00000 0 18406650.775 15639993.217 -8161125.269 10 0 60327 4500.00000 0 17462924.228 14888301.936 -11108404.381 10 0 60327 5400.00000 0 16150236.780 14058940.100 -13839572.514 10 0 60327 6300.00000 0 14482280.070 13212112.626 -16301513.442 10 0 60327 7200.00000 0 12485899.343 12405631.498 -18446365.294 10 0 60327 8100.00000 0 10200197.648 11692365.688 -20232452.897 10 0 60327 9000.00000 0 7675133.503 11117917.879 -21625097.299 10 0 60327 9900.00000 0 4969670.382 10718626.240 -22597286.983 10 0 60327 10800.00000 0 2149555.051 10519975.445 -23130198.132 10 0 60327 11700.00000 0 -715182.874 10535483.538 -23213554.501 10 0 60327 12600.00000 0 -3552906.329 10766111.107 -22845820.497 10 0 60327 13500.00000 0 -6293110.355 11200217.020 -22034224.406 10 0 60327 14400.00000 0 -8869112.526 11814062.058 -20794611.824 10 0 60327 15300.00000 0 -11220583.223 12572838.715 -19151132.544 10 0 60327 16200.00000 0 -13295811.570 13432183.435 -17135767.221 10 0 60327 17100.00000 0 -15053613.919 14340107.370 -14787703.082 10 0 60327 18000.00000 0 -16464806.692 15239264.179 -12152570.808 10 0 60327 18900.00000 0 -17513183.575 16069459.336 -9281557.310 10 0 60327 19800.00000 0 -18195957.675 16770295.191 -6230411.515 10 0 60327 20700.00000 0 -18523651.567 17283840.361 -3058362.421 10 0 60327 21600.00000 0 -18519441.216 17557210.905 173029.610 10 0 60327 22500.00000 0 -18217982.529 17544954.491 3401066.034 10 0 60327 23400.00000 0 -17663770.898 17211136.916 6563124.545 10 0 60327 24300.00000 0 -16909103.566 16531042.888 9597871.153 10 0 60327 25200.00000 0 -16011731.158 15492419.136 12446446.489 10 0 60327 26100.00000 0 -15032297.576 14096207.063 15053603.393 10 0 60327 27000.00000 0 -14031676.107 12356733.518 17368774.044 10 0 60327 27900.00000 0 -13068313.726 10301350.786 19347046.327 10 0 60327 28800.00000 0 -12195695.040 7969539.843 20950030.978 10 0 60327 29700.00000 0 -11460032.101 5411513.100 22146603.260 10 0 60327 30600.00000 0 -10898276.784 2686373.508 22913505.292 10 0 60327 31500.00000 0 -10536538.892 -140094.700 23235797.772 10 0 60327 32400.00000 0 -10388976.274 -2997913.276 23107152.537 10 0 60327 33300.00000 0 -10457203.526 -5815573.300 22529980.293 10 0 60327 34200.00000 0 -10730244.419 -8522765.229 21515390.720 10 0 60327 35100.00000 0 -11185030.467 -11053063.437 20082985.190 10 0 60327 36000.00000 0 -11787425.332 -13346454.557 18260485.326 10 0 60327 36900.00000 0 -12493732.653 -15351605.120 16083203.703 10 0 60327 37800.00000 0 -13252624.503 -17027774.475 13593366.022 10 0 60327 38700.00000 0 -14007409.726 -18346293.463 10839297.019 10 0 60327 39600.00000 0 -14698546.759 -19291547.119 7874485.257 10 0 60327 40500.00000 0 -15266294.825 -19861420.397 4756544.575 10 0 60327 41400.00000 0 -15653391.094 -20067188.299 1546092.256 10 0 60327 42300.00000 0 -15807639.927 -19932855.305 -1694433.931 10 0 60327 43200.00000 0 -15684303.715 -19493972.304 -4901996.293 10 0 60327 44100.00000 0 -15248192.992 -18795981.502 -8014190.798 10 0 60327 45000.00000 0 -14475366.195 -17892159.896 -10970468.724 10 0 60327 45900.00000 0 -13354365.958 -16841249.015 -13713321.685 10 0 60327 46800.00000 0 -11886938.540 -15704871.914 -16189406.120 10 0 60327 47700.00000 0 -10088205.031 -14544847.332 -18350584.731 10 0 60327 48600.00000 0 -7986276.215 -13420515.068 -20154864.248 10 0 60327 49500.00000 0 -5621326.532 -12386185.824 -21567211.250 10 0 60327 50400.00000 0 -3044165.383 -11488823.207 -22560230.344 10 0 60327 51300.00000 0 -314365.054 -10766055.362 -23114692.007 10 0 60327 52200.00000 0 2501977.031 -10244599.517 -23219900.411 10 0 60327 53100.00000 0 5334748.848 -9939165.046 -22873894.743 10 0 60327 54000.00000 0 8112503.066 -9851880.372 -22083480.734 10 0 60327 54900.00000 0 10765194.261 -9972266.870 -20864092.315 10 0 60327 55800.00000 0 13226860.854 -10277760.002 -19239486.502 10 0 60327 56700.00000 0 15438141.106 -10734754.913 -17241277.645 10 0 60327 57600.00000 0 17348519.450 -11300131.781 -14908320.208 10 0 60327 58500.00000 0 18918210.654 -11923196.164 -12285952.050 10 0 60327 59400.00000 0 20119604.451 -12547952.160 -9425112.832 10 0 60327 60300.00000 0 20938211.556 -13115612.293 -6381354.562 10 0 60327 61200.00000 0 21373072.744 -13567238.082 -3213763.447 10 0 60327 62100.00000 0 21436615.088 -13846399.744 16186.059 10 0 60327 63000.00000 0 21153962.519 -13901742.694 3245822.776 10 0 60327 63900.00000 0 20561730.631 -13689352.404 6412492.694 10 0 60327 64800.00000 0 19706357.209 -13174817.644 9454771.695 10 0 60327 65700.00000 0 18642039.211 -12334904.838 12313653.636 10 0 60327 66600.00000 0 17428363.348 -11158772.521 14933690.845 10 0 60327 67500.00000 0 16127729.955 -9648674.196 17264065.194 10 0 60327 68400.00000 0 14802678.305 -7820119.168 19259569.390 10 0 60327 69300.00000 0 13513225.417 -5701483.582 20881479.880 10 0 60327 70200.00000 0 12314329.602 -3333086.621 22098305.024 10 0 60327 71100.00000 0 11253584.639 -765768.990 22886394.527 10 0 60327 72000.00000 0 10369240.742 1940968.573 23230398.703 10 0 60327 72900.00000 0 9688634.826 4721190.898 23123568.912 10 0 60327 73800.00000 0 9227095.520 7505027.080 22567893.328 10 0 60327 74700.00000 0 8987368.722 10221339.869 21574065.136 10 0 60327 75600.00000 0 8959587.787 12800456.050 20161283.212 10 0 60327 76500.00000 0 9121789.818 15176845.363 18356888.426 10 0 60327 77400.00000 0 9440956.687 17291637.171 16195841.679 10 0 60327 78300.00000 0 9874537.315 19094870.548 13720052.903 10 0 60327 79200.00000 0 10372387.413 20547384.110 10977573.138 10 0 60327 80100.00000 0 10879045.006 21622266.630 8021664.724 10 0 60327 81000.00000 0 11336245.573 22305807.646 4909767.250 10 0 60327 81900.00000 0 11685570.146 22597908.100 1702379.265 10 0 60327 82800.00000 0 11871113.688 22511933.737 -1538122.251 10 0 60327 83700.00000 0 11842059.896 22074017.595 -4748701.098 10 0 60327 84600.00000 0 11555052.315 21321841.262 -7866895.308 10 0 60327 85500.00000 0 10976260.149 20302946.813 -10832039.851 10 0 60328 0.00000 0 10083050.157 19072651.410 -13586453.651 10 0 60328 900.00000 0 8865192.198 17691652.577 -16076568.433 10 0 60328 1800.00000 0 7325547.585 16223427.613 -18253973.136 10 0 60328 2700.00000 0 5480208.661 14731535.212 -20076358.119 10 0 60328 3600.00000 0 3358083.897 13276935.010 -21508337.000 10 0 60328 4500.00000 0 999944.795 11915437.481 -22522131.825 10 0 60328 5400.00000 0 -1543026.076 10695391.397 -23098108.444 10 0 60328 6300.00000 0 -4211125.750 9655705.585 -23225152.276 10 0 60328 7200.00000 0 -6938381.829 8824287.362 -22900877.789 10 0 60328 8100.00000 0 -9655070.415 8216962.214 -22131668.285 10 0 60328 9000.00000 0 -12290396.753 7836918.929 -20932545.742 10 0 60328 9900.00000 0 -14775227.576 7674702.284 -19326873.665 10 0 60328 10800.00000 0 -17044762.154 7708752.383 -17345898.958 10 0 60328 11700.00000 0 -19041031.668 7906466.852 -15028141.805 10 0 60328 12600.00000 0 -20715123.604 8225740.239 -12418645.433 10 0 60328 13500.00000 0 -22029039.375 8616914.986 -9568100.229 10 0 60328 14400.00000 0 -22957108.603 9025061.127 -6531859.104 10 0 60328 15300.00000 0 -23486901.940 9392488.073 -3368863.189 10 0 60328 16200.00000 0 -23619605.225 9661382.160 -140498.665 10 0 60328 17100.00000 0 -23369840.252 9776458.311 3090593.086 10 0 60328 18000.00000 0 -22764940.516 9687513.653 6261728.866 10 0 60328 18900.00000 0 -21843713.081 9351775.043 9311396.998 10 0 60328 19800.00000 0 -20654739.079 8735941.151 12180447.180 10 0 60328 20700.00000 0 -19254284.584 7817832.609 14813233.822 10 0 60328 21600.00000 0 -17703909.666 6587580.161 17158691.019 10 0 60328 22500.00000 0 -16067875.853 5048300.071 19171318.658 10 0 60328 23400.00000 0 -14410460.429 3216227.445 20812061.023 10 0 60328 24300.00000 0 -12793289.615 1120300.643 22049061.391 10 0 60328 25200.00000 0 -11272801.709 -1198787.294 22858278.506 10 0 60328 26100.00000 0 -9897945.708 -3690032.161 23223953.369 10 0 60328 27000.00000 0 -8708211.030 -6293998.551 23138917.536 10 0 60328 27900.00000 0 -7732070.198 -8945059.673 22604736.943 10 0 60328 28800.00000 0 -6985899.173 -11573905.343 21631688.190 10 0 60328 29700.00000 0 -6473420.247 -14110215.239 20238567.230 10 0 60328 30600.00000 0 -6185690.663 -16485387.318 18452333.408 10 0 60328 31500.00000 0 -6101637.402 -18635208.599 16307594.867 10 0 60328 32400.00000 0 -6189115.727 -20502357.550 13845944.398 10 0 60328 33300.00000 0 -6406446.932 -22038633.813 11115157.709 10 0 60328 34200.00000 0 -6704370.494 -23206822.056 8168269.051 10 0 60328 35100.00000 0 -7028328.022 -23982111.666 5062541.710 10 0 60328 36000.00000 0 -7320982.083 -24353012.499 1858353.254 10 0 60328 36900.00000 0 -7524862.724 -24321727.889 -1381982.507 10 0 60328 37800.00000 0 -7585028.754 -23903969.112 -4595433.426 10 0 60328 38700.00000 0 -7451630.022 -23128219.116 -7719482.307 10 0 60328 39600.00000 0 -7082260.930 -22034476.727 -10693350.646 10 0 60328 40500.00000 0 -6444004.290 -20672534.707 -13459188.089 10 0 60328 41400.00000 0 -5515077.772 -19099864.734 -15963203.619 10 0 60328 42300.00000 0 -4286012.162 -17379199.057 -18156715.824 10 0 60328 43200.00000 0 -2760310.638 -15575911.220 -19997101.404 10 0 60328 44100.00000 0 -954560.310 -13755306.470 -21448623.447 10 0 60328 45000.00000 0 1102009.497 -11979935.976 -22483123.481 10 0 60328 45900.00000 0 3368504.387 -10307047.560 -23080564.326 10 0 60328 46800.00000 0 5793837.206 -8786279.463 -23229413.757 10 0 60328 47700.00000 0 8318634.503 -7457693.172 -22926862.155 10 0 60328 48600.00000 0 10877498.099 -6350226.685 -22178870.572 10 0 60328 49500.00000 0 13401528.014 -5480631.799 -21000048.788 10 0 60328 50400.00000 0 15821002.102 -4852938.565 -19413366.155 10 0 60328 51300.00000 0 18068101.376 -4458467.903 -17449701.079 10 0 60328 52200.00000 0 20079568.088 -4276390.393 -15147238.019 10 0 60328 53100.00000 0 21799186.379 -4274806.449 -12550723.698 10 0 60328 54000.00000 0 23179982.745 -4412301.213 -9710596.919 10 0 60328 54900.00000 0 24186055.168 -4639907.737 -6682008.777 10 0 60328 55800.00000 0 24793955.192 -4903394.869 -3523752.252 10 0 60328 56700.00000 0 24993565.878 -5145782.701 -297121.901 10 0 60328 57600.00000 0 24788439.594 -5309978.949 2935274.206 10 0 60328 58500.00000 0 24195582.148 -5341424.564 6110727.215 10 0 60328 59400.00000 0 23244692.877 -5190636.549 9167641.330 10 0 60328 60300.00000 0 21976893.017 -4815540.380 12046725.304 10 0 60328 61200.00000 0 20442995.933 -4183493.249 14692138.555 10 0 60328 62100.00000 0 18701391.834 -3272912.429 17052569.942 10 0 60328 63000.00000 0 16815635.447 -2074439.538 19082228.692 10 0 60328 63900.00000 0 14851837.351 -591590.956 20741728.659 10 0 60328 64800.00000 0 12875967.595 1159134.010 21998849.358 10 0 60328 65700.00000 0 10951183.652 3148693.062 22829159.478 10 0 60328 66600.00000 0 9135293.626 5336472.046 23216491.189 10 0 60328 67500.00000 0 7478459.840 7671748.408 23153256.314 10 0 60328 68400.00000 0 6021237.960 10095587.608 22640598.205 10 0 60328 69300.00000 0 4793032.846 12543095.108 21688376.143 10 0 60328 70200.00000 0 3811035.111 14945931.608 20314982.048 10 0 60328 71100.00000 0 3079682.420 17234988.016 18546992.298 10 0 60328 72000.00000 0 2590667.760 19343109.574 16418660.553 10 0 60328 72900.00000 0 2323494.116 21207756.103 13971260.487 10 0 60328 73800.00000 0 2246552.039 22773487.533 11252290.300 10 0 60328 74700.00000 0 2318674.513 23994170.645 8314553.797 10 0 60328 75600.00000 0 2491103.234 24834814.315 5215135.441 10 0 60328 76500.00000 0 2709782.819 25272955.808 2014289.189 10 0 60328 77400.00000 0 2917885.222 25299539.364 -1225737.045 10 0 60328 78300.00000 0 3058456.689 24919249.695 -4441917.902 10 0 60328 79200.00000 0 3077074.091 24150286.038 -7571683.656 10 0 60328 80100.00000 0 2924396.952 23023586.171 -10554144.917 10 0 60328 81000.00000 0 2558505.825 21581533.165 -13331284.220 10 0 60328 81900.00000 0 1946926.815 19876199.618 -15849090.502 10 0 60328 82800.00000 0 1068255.443 17967203.670 -18058613.700 10 0 60328 83700.00000 0 -86689.827 15919267.422 -19916918.582 10 0 60328 84600.00000 0 -1514234.004 13799580.716 -21387919.186 10 0 60328 85500.00000 0 -3197759.417 11675081.151 -22443077.765 10 0 60329 0.00000 0 -5108171.167 9609764.564 -23061955.048 10 0 60329 900.00000 0 -7204896.317 7662137.182 -23232601.955 10 0 60329 1800.00000 0 -9437372.956 5882918.216 -22951785.040 10 0 60329 2700.00000 0 -11746970.723 4313084.345 -22225043.038 10 0 60329 3600.00000 0 -14069260.594 2982339.420 -21066573.026 10 0 60329 4500.00000 0 -16336540.623 1908070.819 -19498949.251 10 0 60329 5400.00000 0 -18480512.592 1094834.739 -17552680.259 10 0 60329 6300.00000 0 -20434998.389 534390.324 -15265613.038 10 0 60329 7200.00000 0 -22138583.243 206279.601 -12682195.773 10 0 60329 8100.00000 0 -23537075.965 78927.370 -9852613.441 10 0 60329 9000.00000 0 -24585683.892 111213.458 -6831812.939 10 0 60329 9900.00000 0 -25250812.103 254450.029 -3678436.615 10 0 60329 10800.00000 0 -25511412.091 454679.674 -453684.865 10 0 60329 11700.00000 0 -25359823.877 655196.644 2779870.144 10 0 60329 12600.00000 0 -24802076.732 799184.233 5959496.536 10 0 60329 13500.00000 0 -23857636.238 832356.575 9023517.058 10 0 60329 14400.00000 0 -22558608.565 705492.996 11912502.178 10 0 60329 15300.00000 0 -20948435.440 376757.666 14570418.911 10 0 60329 16200.00000 0 -19080134.443 -186293.613 16945713.343 10 0 60329 17100.00000 0 -17014158.057 -1005104.481 18992306.266 10 0 60329 18000.00000 0 -14815960.634 -2088975.290 20670483.031 10 0 60329 18900.00000 0 -12553374.351 -3434435.412 21947660.927 10 0 60329 19800.00000 0 -10293902.957 -5025158.058 22799019.688 10 0 60329 20700.00000 0 -8102045.400 -6832422.449 23207983.323 10 0 60329 21600.00000 0 -6036760.024 -8816105.542 23166544.146 10 0 60329 22500.00000 0 -4149174.128 -10926163.516 22675422.747 10 0 60329 23400.00000 0 -2480633.593 -13104542.760 21744060.555 10 0 60329 24300.00000 0 -1061173.151 -15287442.178 20390444.602 10 0 60329 25200.00000 0 91529.443 -17407833.777 18640767.173 10 0 60329 26100.00000 0 972672.129 -19398137.323 16528926.068 10 0 60329 27000.00000 0 1590298.849 -21192938.087 14095874.243 10 0 60329 27900.00000 0 1964723.075 -22731634.341 11388830.590 10 0 60329 28800.00000 0 2127429.148 -23960903.747 8460366.495 10 0 60329 29700.00000 0 2119498.134 -24836884.886 5367385.499 10 0 60329 30600.00000 0 1989625.146 -25326981.822 2170015.736 10 0 60329 31500.00000 0 1791812.594 -25411215.123 -1069563.070 10 0 60329 32400.00000 0 1582837.789 -25083061.845 -4288334.711 10 0 60329 33300.00000 0 1419603.134 -24349748.472 -7423679.360 10 0 60329 34200.00000 0 1356482.264 -23231984.019 -10414599.222 10 0 60329 35100.00000 0 1442775.730 -21763144.328 -13202912.250 10 0 60329 36000.00000 0 1720385.147 -19987941.799 -15734389.846 10 0 60329 36900.00000 0 2221805.358 -17960636.709 -17959815.740 10 0 60329 37800.00000 0 2968520.478 -15742865.516 -19835945.050 10 0 60329 38700.00000 0 3969872.423 -13401177.541 -21326344.807 10 0 60329 39600.00000 0 5222450.372 -11004383.535 -22402099.698 10 0 60329 40500.00000 0 6710027.438 -8620827.113 -23042369.767 10 0 60329 41400.00000 0 8404047.791 -6315692.950 -23234789.779 10 0 60329 42300.00000 0 10264644.182 -4148463.692 -22975703.127 10 0 60329 43200.00000 0 12242143.706 -2170630.933 -22270226.352 10 0 60329 44100.00000 0 14278999.140 -423754.661 -21132143.597 10 0 60329 45000.00000 0 16312065.481 1062049.169 -19583633.423 10 0 60329 45900.00000 0 18275126.898 2269131.364 -17654833.587 10 0 60329 46800.00000 0 20101568.887 3192801.461 -15383252.336 10 0 60329 47700.00000 0 21727084.268 3841270.079 -12813037.671 10 0 60329 48600.00000 0 23092300.258 4235045.758 -9994118.721 10 0 60329 49500.00000 0 24145217.048 4405813.198 -6981235.787 10 0 60329 50400.00000 0 24843356.119 4394841.419 -3832877.859 10 0 60329 51300.00000 0 25155528.616 4250990.079 -610148.180 10 0 60329 52200.00000 0 25063149.937 4028398.891 2624420.139 10 0 60329 53100.00000 0 24561045.636 3783958.357 5808075.419 10 0 60329 54000.00000 0 23657714.999 3574669.077 8879062.113 10 0 60329 54900.00000 0 22375041.315 3455001.472 11777815.433 10 0 60329 55800.00000 0 20747460.888 3474367.630 14448112.800 10 0 60329 56700.00000 0 18820625.426 3674812.137 16838160.072 10 0 60329 57600.00000 0 16649613.353 4089019.511 18901591.846 10 0 60329 58500.00000 0 14296764.316 4738722.520 20598366.889 10 0 60329 59400.00000 0 11829226.573 5633578.895 21895541.837 10 0 60329 60300.00000 0 9316318.738 6770564.388 22767908.691 10 0 60329 61200.00000 0 6826814.876 8133908.694 23198484.115 10 0 60329 62100.00000 0 4426265.022 9695578.112 23178841.318 10 0 60329 63000.00000 0 2174461.659 11416286.231 22709278.101 10 0 60329 63900.00000 0 123156.692 13246991.816 21798817.539 10 0 60329 64800.00000 0 -1685876.856 15130822.786 20465040.837 10 0 60329 65700.00000 0 -3222358.404 17005347.243 18733754.820 10 0 60329 66600.00000 0 -4468526.046 18805097.667 16638499.692 10 0 60329 67500.00000 0 -5419633.125 20464243.524 14219905.651 10 0 60329 68400.00000 0 -6083894.799 21919300.780 11524909.996 10 0 60329 69300.00000 0 -6481887.286 23111764.788 8605849.235 10 0 60329 70200.00000 0 -6645425.551 23990555.725 5519443.387 10 0 60329 71100.00000 0 -6615967.277 24514173.257 2325692.070 10 0 60329 72000.00000 0 -6442611.179 24652468.947 -913295.928 10 0 60329 72900.00000 0 -6179775.112 24387960.957 -4134516.324 10 0 60329 73800.00000 0 -5884653.167 23716634.756 -7275301.911 10 0 60329 74700.00000 0 -5614560.521 22648195.383 -10274549.125 10 0 60329 75600.00000 0 -5424279.594 21205760.032 -13073913.813 10 0 60329 76500.00000 0 -5363521.034 19425003.542 -15618952.120 10 0 60329 77400.00000 0 -5474608.002 17352792.562 -17860183.612 10 0 60329 78300.00000 0 -5790482.644 15045365.740 -19754055.558 10 0 60329 79200.00000 0 -6333119.709 12566136.343 -21263789.517 10 0 60329 80100.00000 0 -7112414.868 9983209.448 -22360093.884 10 0 60329 81000.00000 0 -8125595.029 7366717.523 -23021728.978 10 0 60329 81900.00000 0 -9357175.803 4786085.524 -23235914.205 10 0 60329 82800.00000 0 -10779468.182 2307339.216 -22998570.046 10 0 60329 83700.00000 0 -12353613.369 -9431.745 -22314390.791 10 0 60329 84600.00000 0 -14031102.601 -2112351.205 -21196747.144 10 0 60329 85500.00000 0 -15755718.490 -3959680.718 -19667421.042 10 0 60330 0.00000 0 -17465816.656 -5521311.635 -17756178.277 10 0 60330 900.00000 0 -19096853.278 -6779765.286 -15500186.261 10 0 60330 1800.00000 0 -20584050.689 -7730659.125 -12943290.905 10 0 60330 2700.00000 0 -21865092.622 -8382623.886 -10135163.184 10 0 60330 3600.00000 0 -22882734.136 -8756674.766 -7130334.334 10 0 60330 4500.00000 0 -23587217.869 -8885065.448 -3987137.398 10 0 60330 5400.00000 0 -23938395.289 -8809674.389 -766575.795 10 0 60330 6300.00000 0 -23907464.060 -8579992.431 2468859.158 10 0 60330 7200.00000 0 -23478248.635 -8250797.468 5656398.754 10 0 60330 8100.00000 0 -22647970.313 -7879614.881 8734211.962 10 0 60330 9000.00000 0 -21427474.358 -7524071.342 11642601.524 10 0 60330 9900.00000 0 -19840904.371 -7239253.928 14325157.971 10 0 60330 10800.00000 0 -17924837.226 -7075186.058 16729849.473 10 0 60330 11700.00000 0 -15726914.170 -7074526.799 18810026.724 10 0 60330 12600.00000 0 -13304024.650 -7270590.582 20525323.845 10 0 60330 13500.00000 0 -10720117.800 -7685770.916 21842438.346 10 0 60330 14400.00000 0 -8043731.823 -8330434.779 22735775.553 10 0 60330 15300.00000 0 -5345343.125 -9202334.787 23187945.359 10 0 60330 16200.00000 0 -2694644.353 -10286564.657 23190101.979 10 0 60330 17100.00000 0 -157863.426 -11556060.953 22742120.082 10 0 60330 18000.00000 0 2204765.987 -12972631.335 21852603.689 10 0 60330 18900.00000 0 4341278.276 -14488467.566 20538727.124 10 0 60330 19800.00000 0 6209900.164 -16048081.214 18825910.427 10 0 60330 20700.00000 0 7780545.899 -17590582.072 16747334.614 10 0 60330 21600.00000 0 9035821.539 -19052204.670 14343305.293 10 0 60330 22500.00000 0 9971496.806 -20368977.446 11660476.124 10 0 60330 23400.00000 0 10596425.173 -21479422.654 8750946.482 10 0 60330 24300.00000 0 10931916.025 -22327173.295 5671250.442 10 0 60330 25200.00000 0 11010585.833 -22863396.448 2481256.564 10 0 60330 26100.00000 0 10874737.426 -23048920.080 -756999.919 10 0 60330 27000.00000 0 10574336.582 -22855972.761 -3980529.266 10 0 60330 27900.00000 0 10164672.373 -22269461.883 -7126619.497 10 0 60330 28800.00000 0 9703801.277 -21287735.477 -10134063.812 10 0 60330 29700.00000 0 9249884.321 -19922794.680 -12944358.391 10 0 60330 30600.00000 0 8858531.018 -18199947.169 -15502846.438 10 0 60330 31500.00000 0 8580263.481 -16156915.669 -17759785.504 10 0 60330 32400.00000 0 8458208.803 -13842438.691 -19671316.932 10 0 60330 33300.00000 0 8526117.859 -11314421.977 -21200318.449 10 0 60330 34200.00000 0 8806794.619 -8637718.021 -22317123.472 10 0 60330 35100.00000 0 9311002.485 -5881626.360 -23000093.513 10 0 60330 36000.00000 0 10036893.814 -3117218.769 -23236033.147 10 0 60330 36900.00000 0 10969986.656 -414600.574 -23020440.081 10 0 60330 37800.00000 0 12083689.633 2159778.458 -22357586.110 10 0 60330 38700.00000 0 13340352.884 4545652.504 -21260427.934 10 0 60330 39600.00000 0 14692800.910 6691203.128 -19750349.986 10 0 60330 40500.00000 0 16086283.030 8554964.836 -17856744.551 10 0 60330 41400.00000 0 17460759.682 10107294.818 -15616437.450 10 0 60330 42300.00000 0 18753428.725 11331347.130 -13072970.469 10 0 60330 43200.00000 0 19901385.818 12223512.324 -10275754.420 10 0 60330 44100.00000 0 20844307.325 12793305.811 -7279109.181 10 0 60330 45000.00000 0 21527043.161 13062711.220 -4141209.314 10 0 60330 45900.00000 0 21902010.688 13065007.822 -922955.684 10 0 60330 46800.00000 0 21931289.109 12843132.560 2313205.029 10 0 60330 47700.00000 0 21588326.283 12447646.708 5504489.980 10 0 60330 48600.00000 0 20859186.092 11934393.605 8588995.480 10 0 60330 49500.00000 0 19743283.736 11361946.737 11506894.508 10 0 60330 50400.00000 0 18253577.710 10788956.093 14201593.242 10 0 60330 51300.00000 0 16416209.869 10271504.784 16620824.483 10 0 60330 52200.00000 0 14269607.949 9860587.329 18717657.103 10 0 60330 53100.00000 0 11863087.219 9599815.753 20451402.407 10 0 60330 54000.00000 0 9255008.611 9523450.015 21788400.331 10 0 60330 54900.00000 0 6510568.975 9654835.653 22702670.760 10 0 60330 55800.00000 0 3699314.254 10005314.550 23176417.716 10 0 60330 56700.00000 0 892477.764 10573654.974 23200376.915 10 0 60330 57600.00000 0 -1839747.059 11346025.535 22773999.966 10 0 60330 58500.00000 0 -4430887.206 12296514.998 21905471.419 10 0 60330 59400.00000 0 -6820713.615 13388177.188 20611557.844 10 0 60330 60300.00000 0 -8957503.569 14574558.241 18917291.135 10 0 60330 61200.00000 0 -10799948.490 15801643.137 16855491.350 10 0 60330 62100.00000 0 -12318628.148 17010140.647 14466137.403 10 0 60330 63000.00000 0 -13496990.172 18138011.280 11795596.939 10 0 60330 63900.00000 0 -14331794.211 19123132.173 8895729.663 10 0 60330 64800.00000 0 -14833002.526 19905986.625 5822881.078 10 0 60330 65700.00000 0 -15023122.016 20432264.486 2636786.014 10 0 60330 66600.00000 0 -14936025.938 20655262.969 -600596.521 10 0 60330 67500.00000 0 -14615305.660 20537985.567 -3826293.987 10 0 60330 68400.00000 0 -14112222.880 20054849.365 -6977552.238 10 0 60330 69300.00000 0 -13483349.814 19192927.530 -9993063.769 10 0 60330 70200.00000 0 -12787998.143 17952673.469 -12814167.501 10 0 60330 71100.00000 0 -12085546.481 16348095.180 -15385995.939 10 0 60330 72000.00000 0 -11432780.343 14406371.660 -17658546.642 10 0 60330 72900.00000 0 -10881357.816 12166926.926 -19587656.797 10 0 60330 73800.00000 0 -10475508.564 9680000.012 -21135861.812 10 0 60330 74700.00000 0 -10250063.639 7004770.575 -22273121.338 10 0 60330 75600.00000 0 -10228899.277 4207118.189 -22977399.003 10 0 60330 76500.00000 0 -10423860.127 1357108.570 -23235085.150 10 0 60330 77400.00000 0 -10834207.001 -1473688.820 -23041254.964 10 0 60330 78300.00000 0 -11446612.013 -4214940.610 -22399757.634 10 0 60330 79200.00000 0 -12235700.943 -6800233.497 -21323135.336 10 0 60330 80100.00000 0 -13165119.660 -9169591.571 -19832374.091 10 0 60330 81000.00000 0 -14189079.523 -11271723.332 -17956491.569 10 0 60330 81900.00000 0 -15254316.598 -13065906.158 -15731970.004 10 0 60330 82800.00000 0 -16302382.217 -14523431.040 -13202045.273 10 0 60330 83700.00000 0 -17272168.527 -15628548.867 -10415865.859 10 0 60330 84600.00000 0 -18102562.798 -16378880.242 -7427537.961 10 0 60330 85500.00000 0 -18735118.798 -16785273.209 -4295075.218 99